Location: Shannon
(40.5500°S, 175.4167°E)
Time: 21:54:51
(UTC+00:00)

Meteor 2-8 Rocket - Pass Details

Date: 17 November 2025
Orbit: 935 x 958 km, 82.5° (Epoch: 06 December)

Event Time Altitude Azimuth Distance (km) Brightness Sun altitude
Exits shadow 15:16:15 14° 351° (N) 2,375 6.1 -15.4°
Maximum altitude 15:21:36 85° 263° (W) 962 4.4 -14.6°
Drops below altitude 10° 15:27:48 10° 173° (S) 2,703 7.5 -13.7°
Sets 15:30:20 0° 172° (S) 3,658 8.3 -13.4°
